This is the latest recevied weather packets stored in our database for station/object EW3591. If no packets are shown the sender has not sent any weather packets the latest 1 day(s).
| Time | Temp. | Humidity | Pressure | Rain* | Wind** | Luminosity | Snow |
|---|---|---|---|---|---|---|---|
| 1777969686 | 14.44° C | 84% | 998.9 hPa | 0 mm | 2.24 m/s, 208° | - | - |
| 1777969565 | 14.44° C | 84% | 999 hPa | 0 mm | 2.68 m/s, 216° | - | - |
| 1777969445 | 14.44° C | 84% | 999 hPa | 0 mm | 2.68 m/s, 220° | - | - |
| 1777969325 | 14.44° C | 84% | 999 hPa | 0 mm | 2.24 m/s, 219° | - | - |
| 1777969204 | 14.44° C | 84% | 999 hPa | 0 mm | 2.68 m/s, 219° | - | - |
| 1777969084 | 14.44° C | 84% | 999 hPa | 0 mm | 2.68 m/s, 211° | - | - |
| 1777968964 | 15° C | 84% | 999.1 hPa | 0 mm | 2.24 m/s, 210° | - | - |
| 1777968844 | 15° C | 83% | 999.2 hPa | 0 mm | 2.68 m/s, 218° | - | - |
| 1777968723 | 15° C | 83% | 999.2 hPa | 0 mm | 2.68 m/s, 222° | - | - |
| 1777968603 | 15° C | 83% | 999.3 hPa | 0 mm | 3.13 m/s, 219° | - | - |
| 1777968483 | 15° C | 83% | 999.3 hPa | 0 mm | 2.68 m/s, 211° | - | - |
| 1777968362 | 15° C | 83% | 999.3 hPa | 0 mm | 2.68 m/s, 213° | - | - |
| 1777968242 | 15° C | 83% | 999.4 hPa | 0 mm | 2.68 m/s, 218° | - | - |
| 1777968122 | 15° C | 82% | 999.5 hPa | 0 mm | 1.34 m/s, 222° | - | - |
| 1777968001 | 15° C | 82% | 999.4 hPa | 0 mm | 2.24 m/s, 211° | - | - |
| 1777967881 | 15° C | 82% | 999.5 hPa | 0 mm | 1.79 m/s, 227° | - | - |
| 1777967761 | 15° C | 82% | 999.5 hPa | 0 mm | 1.79 m/s, 243° | - | - |
| 1777967641 | 15° C | 82% | 999.5 hPa | 0 mm | 1.34 m/s, 238° | - | - |
| 1777967520 | 15.56° C | 82% | 999.5 hPa | 0 mm | 1.79 m/s, 228° | - | - |
| 1777967400 | 15.56° C | 82% | 999.6 hPa | 0 mm | 1.34 m/s, 223° | - | - |
| 1777967280 | 15.56° C | 82% | 999.6 hPa | 0 mm | 1.34 m/s, 207° | - | - |
| 1777967159 | 15.56° C | 81% | 999.5 hPa | 0 mm | 2.24 m/s, 219° | - | - |
| 1777967039 | 15.56° C | 81% | 999.7 hPa | 0 mm | 2.24 m/s, 214° | - | - |
| 1777966919 | 15.56° C | 81% | 999.6 hPa | 0 mm | 2.24 m/s, 213° | - | - |
| 1777966798 | 15.56° C | 81% | 999.6 hPa | 0 mm | 2.24 m/s, 228° | - | - |
* Rain latest hour (hover to see other rain measurements)
** Current wind speed in m/s (hover to see current wind gust speed)